マクノート彗星

284P/McNaught (2021)

English version
Home page
Updated on September 18, 2021

---------------------------------------------------------------------

・ プロフィール

・ 写真集

・ 軌道要素

Epoch 2021 July 5.0 TT = JDT 2459400.5
T 2021 Sept. 12.78717 TT                                Rudenko
q   2.2956815            (2000.0)            P               Q
n   0.13960316     Peri.  202.47316     +0.96855777     +0.21790767
a   3.6802096      Node   144.26323     -0.18532464     +0.95386574
e   0.3762090      Incl.   11.86133     -0.16598380     +0.20653428
P   7.06
From 1975 observations 2007 Apr. 17-2021 June 26, mean residual 0".7.
     Nongravitational parameters A1 = +0.05, A2 = +0.0069.

・ 星図

・ 光度変化

        m1 = 7.5 + 5 logΔ + 20.0 log r

---------------------------------------------------------------------

軌道要素はM.P.E.C. 2021-N06に掲載されたものです。
星図はステラナビゲータ Ver.10 (アストロアーツ) で作成したものです。
光度グラフはComet for Windowsで作成したものです。

---------------------------------------------------------------------

Copyright(C) Seiichi Yoshida (comet@aerith.net). All rights reserved.